Miscellaneous Local Product
Issued by NWS North Platte, NE

Home | Current Version | Previous Version | Text Only | Print | Product List | Glossary On
Versions: 1 2 3 4 5 6 7 8 9 10 11 12 13 14 15 16 17 18 19 20 21 22 23 24 25 26 27 28 29 30 31 32 33 34 35 36 37 38 39 40 41 42 43 44 45 46 47 48 49 50
000
AXUS43 KLBF 241210
MISLBF


WESTERN AND NORTH CENTRAL NEBRASKA HOURLY WEATHER ROUNDUP
NATIONAL WEATHER SERVICE NORTH PLATTE NE
700 AM CDT SUN MAY 24 2015

***STATIONS NOT REPORTING VARIABLES SUCH AS SKY/WEATHER OR
PRESSURE ARE PROVIDED BY THE NEBRASKA DEPARTMENT OF
ROADS...RAWS...AND APRS NETWORKS...AND ARE NOT UNDER
NATIONAL WEATHER SERVICE QUALITY CONTROL***

...OBSERVATIONS IN AND NEAR THE EASTERN PANHANDLE OF NEBRASKA...

CITY           SKY/WX    TMP DP  RH WIND       PRES   REMARKS
PINE RIDGE     CLOUDY    53  51  93 E9        29.91S
CHADRON        LGT RAIN  52  51  97 CALM      29.92R FOG
ALLIANCE       CLOUDY    51  48  89 CALM      29.90R
SIDNEY         FOG       49  49 100 NW5       29.90S VSB 1/4
WHITECLAY        N/A     51  50  95 CALM        N/A
BIG SPRINGS      N/A     55  54  97 E3          N/A
$$

...OBSERVATIONS IN NORTH CENTRAL NEBRASKA...

CITY           SKY/WX    TMP DP  RH WIND       PRES   REMARKS
VALENTINE      LGT RAIN  54  54 100 E8        29.93S FOG
THEDFORD       DRIZZLE   56  55  99 E8        29.93R
AINSWORTH      RAIN      55  55 100 E9        29.94R VSB 1
O`NEILL        FOG       58  57  99 E6        29.93R VSB<1/4
ORD            CLOUDY    57  57 100 SE3       29.90R FOG
BROKEN BOW     HVY RAIN  58  57  97 SE6       29.91R FOG
VALENTINE NWR    N/A     53  53  99 E8          N/A
SPRINGVIEW       N/A     55  54  96 CALM        N/A
ROSE             N/A     58  58  99 NE5         N/A
NEWPORT          N/A     56  56  99 E9          N/A
SARGENT          N/A     57  56  98 CALM        N/A
COMSTOCK         N/A     61  61  99 SE3         N/A
EWING            N/A     58  57  98 CALM        N/A
$$

...OBSERVATIONS IN SOUTHWEST NEBRASKA AND FAR NORTHEAST COLORADO...

CITY           SKY/WX    TMP DP  RH WIND       PRES   REMARKS
WRAY           FAIR     N/A N/A N/A CALM      29.89R HAZE
IMPERIAL       CLOUDY    54  53  97 S6        29.88R
OGALLALA       MOCLDY    55  54  98 E5        29.88F
NORTH PLATTE   CLOUDY    56  54  93 NE3       29.91R
MCCOOK         CLOUDY    56  55  97 SE9       29.88S
LEXINGTON      CLOUDY    57  57  97 CALM      29.90S FOG
PAXTON           N/A     55  54  97 NE5         N/A
GOTHENBURG       N/A     57  54  91 CALM        N/A
CALLAWAY         N/A     56  56  99 SE6         N/A
$$

...NORTH PLATTE AREA...

CITY           SKY/WX    TMP DP  RH WIND       PRES   REMARKS
AIRPORT        CLOUDY    56  54  93 NE3       29.91R
DOWNTOWN         N/A     55  54  97 CALM        N/A
$$

...SOME WEATHER OBSERVATIONS FROM AROUND THE REGION...

CITY           SKY/WX    TMP DP  RH WIND       PRES   REMARKS
DENVER         PTCLDY    42  38  85 SW8       29.92R
LARAMIE        CLOUDY    38  38 100 SE6       29.94R WCI  33
CHEYENNE       PTCLDY    37  36  96 CALM      29.93R
SCOTTSBLUFF    CLOUDY    51  51 100 E5        29.90R FOG
RAPID CITY     LGT RAIN  52  51  97 E15       29.95S FOG
PIERRE         CLOUDY    55  54  96 E8        29.97S FOG
WINNER         FOG       56  54  93 E10       29.95R VSB 1/4
SIOUX FALLS    CLOUDY    59  58  96 E9        29.96S
OMAHA          CLOUDY    61  59  93 E10       29.88F FOG
GRAND ISLAND   CLOUDY    59  58  96 CALM      29.91R FOG
KANSAS CITY    LGT RAIN  63  63 100 S10       29.88R FOG
WICHITA        CLOUDY    60  58  92 E5        29.90F
HAYS           CLOUDY    55  50  82 SE3       29.88F VSB<1/4
LIBERAL        CLOUDY    59  54  82 S6        29.88F
GOODLAND       CLOUDY    52  51  97 S8        29.89S
$$



USA.gov is the U.S. government's official web portal to all federal, state and local government web resources and services.